Retour au catalogue

BLOCK DM-SL R/B

ActifGEO
NORAD 44904·ROCKET BODY·🇷🇺 Russia

Lancé Dec 24, 2019 depuis Baikonur Cosmodrome

Loading…

TLE

FraisSource: Space-Track

Époque: Sep 13, 2026, 16:39 UTC

1 44904U 19095B   26256.69428067 -.00000038  00000-0  00000-0 0  9990
2 44904   5.5443  72.2981 0069600 278.2539  81.1938  1.02970428 25303

Suivez BLOCK DM-SL R/B en temps réel avec AllMySat

Download on the App Store